sat.trackr.live / text

‹ back to catalog

STARLINK-35035

NORAD 65407 · 2025-192D

PAYLOAD ACTIVE UNKNOWN

§ Identity

Operator
Country
US
Launch date
2025-08-31
Launch site
AFETR
Launch vehicle
Mass (kg)
RCS (m²)

Purposes: comms

External: N2YO · Heavens-Above · Gunter

§ Orbital elements

Epoch: 2026-09-20T14:29:14.028576Z

Period
93.85 min
Inclination
53.1566°
Eccentricity
0.0000545
Mean motion
15.34405040 rev/d
Perigee alt
462.3 km
Apogee alt
463.1 km
Semi-major
6,840.8 km
B*
1.6109e-4
RAAN
45.0644°
Arg perigee
75.6837°
Mean anomaly
284.4226°
Rev number
5,926

§ Raw data

STARLINK-350351 65407U 25192D   26263.60363459  .00005071  00000+0  16109-3 0  99982 65407  53.1566  45.0644 0000545  75.6837 284.4226 15.34405040 59269

JSON: /api/v1/satellites/65407 · /tle

For live sub-satellite position, see the globe view (requires WebGL).

§ Visibility from observer

Set your observer location to see the next 7 days of passes ≥ 10°. The values pass through the URL so the page stays shareable.

No JS? Fill the form by hand. The geolocation button needs JavaScript.